Location: Banff
(51.1667°N, 115.5667°W)
Time: 14:45:17
(UTC+00:00)

Altair - Pass Details

Date: 01 December 2020
Orbit: 1501 x 1682 km, 47.2° (Epoch: 14 January)

Event Time Altitude Azimuth Distance (km) Brightness Sun altitude
Rises 01:38:25 0° 183° (S) 4,751 10.3 -17.9°
Reaches altitude 10° 01:43:00 10° 164° (SSE) 3,736 9.5 -18.6°
Maximum altitude 01:48:19 17° 129° (SE) 3,199 8.8 -19.5°
Enters shadow 01:49:34 16° 119° (ESE) 3,223 8.7 -19.6°
